Wind_Speed
21 21 19 16 17 21 22 23 23 22 22 22 22 24 26 27 28 28 26 24 22 20 19 17 16 15 14 14 14 15 15 15 14 13 12 12 12 12 12 12 12 11 10 9 9 9 8 7 6 5 5 5 6 6 6 7 8 9 10 10 10 10 13 15 12 13 13 11 11 11 10 9 9 8 7 6 5 6 6 7 9 9 8 7 7
19 19 18 17 21 25 25 24 22 21 22 24 23 23 25 28 28 27 25 23 21 19 18 17 15 14 14 14 14 15 15 14 13 12 12 11 11 11 11 11 10 10 9 8 8 9 8 7 6 7 7 7 7 8 8 8 8 9 10 11 11 11 13 16 13 13 13 11 11 11 11 10 10 9 9 8 7 6 6 7 8 8 7 7 7
18 20 21 22 25 27 26 24 22 22 22 23 24 25 27 28 28 26 24 22 20 19 17 16 14 14 13 14 15 15 14 13 12 11 11 10 9 9 9 9 9 9 9 8 9 9 8 7 7 8 8 9 9 8 8 8 9 9 10 12 12 12 13 16 15 12 13 11 11 11 11 11 10 10 9 9 7 7 7 7 7 7 7 7 7
20 23 24 24 26 27 26 24 23 22 22 23 25 26 27 27 27 25 23 21 19 18 16 15 14 13 13 14 15 14 13 12 11 10 10 9 9 9 8 8 9 9 8 8 9 10 9 8 7 7 8 9 9 9 8 8 8 9 10 12 13 13 13 15 17 13 12 12 11 11 10 10 10 10 9 8 7 6 7 7 7 7 8 7 8
24 25 25 25 26 26 25 24 22 22 22 23 25 27 27 26 25 23 21 20 18 17 15 14 14 13 14 14 14 13 12 11 11 10 10 9 8 8 8 9 9 9 8 8 9 10 9 8 8 7 8 8 9 9 8 8 8 9 10 12 14 14 13 14 17 15 13 12 12 12 11 10 10 9 9 9 8 7 7 7 7 7 8 8 9
25 25 25 25 26 26 25 23 22 22 22 24 26 26 26 25 24 22 21 19 17 16 15 14 14 14 14 13 13 12 11 11 10 10 9 9 9 9 9 9 9 8 9 9 9 10 9 8 8 8 9 9 9 8 8 7 8 10 11 12 13 14 14 14 16 16 14 13 12 12 11 10 9 9 10 10 10 10 9 8 7 7 8 9 9
24 25 25 25 25 25 24 23 22 22 23 24 26 26 25 24 23 21 20 18 16 15 14 14 14 14 13 13 13 12 10 10 10 10 9 9 9 10 10 10 9 9 9 9 9 9 9 8 9 10 10 10 9 9 8 8 9 10 11 12 12 13 14 14 14 16 15 14 13 12 10 10 9 9 10 11 11 11 11 10 9 8 8 9 9
24 24 24 24 23 23 23 23 22 23 24 25 26 25 24 23 22 20 18 16 15 15 14 14 14 13 13 13 12 11 10 9 10 10 10 9 10 11 11 10 9 9 9 10 10 10 10 10 10 11 11 11 11 10 10 10 10 11 12 11 11 12 13 14 13 14 15 14 13 11 10 10 9 9 10 11 11 11 12 11 11 11 10 10 9
23 23 22 22 22 22 22 22 22 23 24 25 25 24 23 22 21 19 17 16 15 15 14 14 13 13 13 13 12 10 9 9 10 10 10 10 11 11 11 10 9 9 10 10 11 11 11 11 11 12 12 12 12 11 11 11 11 10 11 11 11 11 12 13 13 12 13 14 13 11 9 9 9 9 9 11 11 11 12 12 12 12 11 11 10
22 22 22 21 21 21 21 21 22 23 24 25 25 24 22 21 20 18 16 15 15 14 14 13 13 13 13 12 11 9 8 9 10 10 10 11 11 11 10 9 8 8 9 10 11 12 12 12 12 12 11 12 12 12 11 11 11 11 10 11 11 10 10 11 13 12 11 11 12 11 9 9 8 8 8 9 10 10 11 11 12 12 12 11 11
22 22 22 20 20 20 21 21 21 23 24 25 24 23 21 20 19 17 15 15 15 14 13 12 12 12 12 11 10 9 8 9 9 10 11 11 11 10 10 10 9 9 9 10 11 12 12 12 12 12 11 11 12 12 12 12 11 11 11 11 11 10 10 10 11 12 11 10 10 10 9 8 8 7 7 8 9 9 8 9 10 10 10 10 10
22 22 21 20 20 20 20 20 21 23 24 24 24 22 20 20 18 16 15 15 14 13 12 11 11 11 11 11 9 8 8 9 10 11 12 11 11 10 10 10 10 10 10 10 11 12 12 12 12 12 11 11 12 12 12 12 11 11 10 10 11 10 10 10 10 11 11 10 9 9 9 8 7 7 7 7 8 8 7 8 8 8 8 9 9
22 22 21 20 20 20 20 20 21 22 24 24 24 22 20 19 17 15 15 14 13 12 12 11 10 10 10 10 9 7 8 9 10 11 12 11 10 10 11 11 11 11 11 12 13 12 12 12 11 11 11 11 11 11 11 11 10 10 9 9 10 10 10 10 9 9 10 10 9 8 7 7 6 6 6 6 6 7 7 7 6 7 6 7 7
22 21 20 20 19 20 20 20 20 21 23 24 23 21 19 18 16 15 14 13 13 12 11 10 10 10 10 9 8 7 7 9 10 11 11 10 10 11 11 11 12 12 12 12 12 11 11 10 10 10 9 9 9 10 9 9 10 9 9 8 9 9 9 9 9 8 8 9 9 8 7 7 6 5 5 5 5 6 6 5 4 4 5 5 5
20 20 20 19 19 20 20 20 20 21 23 23 22 20 19 18 16 15 14 13 12 11 10 10 9 9 9 8 7 7 8 9 9 10 10 10 10 10 10 11 11 11 10 10 10 10 9 9 9 9 8 8 8 8 8 8 9 9 9 9 9 9 9 9 8 8 7 7 8 8 8 7 7 6 5 5 5 5 4 3 3 3 3 5 4
20 19 19 19 19 19 20 20 21 21 22 22 21 19 18 17 16 15 13 12 12 11 10 9 9 9 8 7 7 7 7 8 9 8 8 9 9 9 9 9 9 9 8 8 9 9 9 9 9 9 9 8 9 9 8 8 9 9 9 9 9 8 8 8 8 8 7 6 6 7 7 7 7 7 6 6 6 5 4 3 3 4 4 4 5
20 20 19 18 19 18 19 20 21 22 22 22 20 19 18 17 15 14 13 12 11 11 10 9 9 8 7 7 7 7 7 7 7 7 7 7 7 8 8 7 7 7 7 8 9 9 9 9 10 10 10 10 10 10 9 9 8 8 8 8 9 8 7 7 7 7 7 7 6 6 6 6 6 6 6 6 6 6 5 4 4 5 5 5 6
20 20 19 18 17 17 18 19 21 22 22 21 20 19 18 16 15 14 13 12 11 11 10 9 9 8 6 6 7 7 7 7 6 6 5 5 6 6 6 6 5 6 6 8 9 9 9 10 10 10 10 10 10 9 9 9 8 7 8 8 8 8 6 5 5 6 7 7 7 6 6 6 6 6 5 5 5 4 4 5 5 6 6 6 6
20 19 19 18 17 17 17 19 20 21 21 20 19 19 18 16 15 14 13 12 11 10 10 9 8 7 6 6 6 6 6 6 5 5 5 4 4 4 5 4 4 5 6 8 8 8 8 10 10 10 11 10 10 9 9 9 8 8 9 8 7 7 6 5 4 5 5 6 7 7 6 6 6 6 6 6 5 4 3 4 5 6 6 6 6
20 19 19 18 18 17 17 17 19 20 20 19 18 17 17 16 15 14 13 12 11 10 10 9 8 7 6 6 6 5 5 5 4 4 4 3 3 4 4 4 5 5 6 7 8 7 7 8 9 10 11 11 10 9 9 9 8 7 7 6 6 7 6 5 4 4 4 5 6 7 6 6 6 6 6 6 6 5 4 4 4 5 6 7 5
20 19 19 19 18 18 17 16 17 18 19 19 18 17 16 15 15 14 13 12 11 11 10 9 8 7 6 6 5 4 3 4 4 4 4 4 3 3 4 5 5 5 6 6 6 6 6 7 9 10 11 12 11 9 9 8 8 7 6 5 5 5 4 4 4 3 3 4 4 6 6 6 6 6 5 5 6 5 5 4 4 4 5 6 5
21 20 19 19 18 18 17 17 16 17 18 18 17 16 15 14 14 13 12 12 11 11 10 9 8 7 6 5 4 3 3 4 4 4 4 4 4 4 4 5 5 5 5 5 5 5 6 7 8 10 12 12 12 11 9 8 7 7 6 5 3 2 1 2 3 3 3 3 3 4 5 5 5 5 5 5 5 5 5 5 4 4 4 5 5
20 20 19 19 18 18 18 17 17 17 17 17 16 15 14 13 13 12 12 11 11 10 10 9 8 6 5 4 3 3 4 4 5 4 4 4 4 5 5 4 4 4 5 4 4 4 5 7 9 11 12 12 13 13 11 10 8 7 7 6 3 2 2 1 2 3 3 3 3 3 3 4 4 4 4 4 4 4 5 5 5 4 3 3 3
19 19 19 19 19 18 18 18 17 17 16 16 15 15 14 13 12 12 12 11 11 10 10 9 7 6 4 4 3 4 4 5 4 4 4 4 3 4 4 3 3 3 4 4 3 4 5 7 9 10 11 12 12 13 13 12 10 10 10 8 4 1 2 2 3 3 4 4 3 3 3 3 4 4 3 3 3 3 4 5 5 5 4 3 3
18 18 19 19 19 19 19 18 18 17 16 16 15 14 14 13 13 12 12 11 11 10 10 8 7 5 5 4 4 5 5 4 4 4 3 3 2 2 2 2 3 3 3 4 4 4 5 7 9 10 11 12 13 13 14 14 13 13 13 11 7 4 2 2 3 4 4 4 4 4 4 3 3 3 3 2 2 2 3 3 4 5 5 5 4
18 18 18 18 19 19 19 18 17 17 16 16 15 15 14 13 13 12 12 12 11 11 10 9 7 6 5 5 5 5 5 4 3 3 2 2 1 2 2 2 3 4 4 4 4 4 6 7 9 10 11 12 12 13 13 14 14 14 15 14 10 7 4 2 1 2 3 4 4 5 5 4 3 2 3 2 1 1 1 1 2 3 4 5 4
17 18 18 18 19 18 19 18 18 17 16 16 16 15 14 14 14 13 13 12 11 10 10 9 8 7 7 7 6 5 4 4 3 2 1 1 1 1 2 2 4 4 4 4 4 4 5 7 8 10 11 11 11 12 12 14 14 14 14 15 13 10 7 3 1 1 1 2 4 5 5 5 4 3 3 3 2 1 0 0 1 2 2 3 3
17 18 19 19 19 18 18 18 18 17 16 16 16 15 15 14 14 14 13 13 11 10 10 9 8 8 8 7 6 5 4 3 2 1 0 1 1 0 1 2 3 4 4 4 4 4 6 7 8 9 10 10 9 10 11 13 14 13 13 14 13 11 8 5 3 2 1 1 3 5 6 6 6 5 5 4 3 3 1 1 1 0 0 1 1
17 18 19 19 19 19 18 18 18 18 17 16 16 16 15 15 15 14 14 13 12 11 10 9 9 9 9 8 7 6 5 4 2 1 1 0 1 1 1 1 2 2 3 3 4 5 6 8 9 10 10 9 9 9 10 12 13 13 13 12 12 11 9 6 4 3 2 1 2 5 7 8 7 6 5 5 4 4 3 2 2 2 1 0 1
18 18 19 19 20 20 19 19 18 18 17 16 16 16 16 15 15 14 13 12 12 12 11 10 10 9 9 8 7 6 5 4 3 3 2 2 2 2 2 2 2 2 2 3 4 5 6 8 9 10 10 10 10 10 10 11 12 12 12 12 12 10 8 7 5 4 3 3 1 3 6 7 7 6 6 6 5 5 4 4 3 2 2 1 2
19 19 19 19 20 19 19 19 18 18 17 16 16 16 15 15 14 14 13 12 12 12 11 11 10 10 9 8 7 6 5 5 4 4 4 4 4 4 3 3 2 2 2 3 4 5 6 6 8 9 10 11 12 12 12 11 11 11 11 11 12 10 7 7 6 5 4 4 3 3 4 6 7 7 7 7 6 6 6 6 5 4 3 3 3
19 19 18 19 19 19 19 19 18 18 17 16 16 15 15 14 14 14 13 13 13 12 12 11 10 10 9 8 7 6 6 6 5 5 5 5 5 5 4 3 3 2 3 3 4 5 6 6 8 9 10 11 11 12 13 13 12 11 11 10 11 10 6 7 6 5 4 5 5 5 3 4 6 7 8 8 7 7 7 7 6 6 5 4 4
17 18 19 19 19 19 19 19 18 18 17 16 16 15 15 15 14 13 13 14 13 12 12 11 11 10 9 8 7 7 6 6 6 6 6 6 6 5 4 4 3 2 3 4 5 6 7 7 8 10 10 11 11 12 13 13 12 12 12 10 9 8 6 6 6 4 3 3 5 5 3 2 5 6 8 9 9 9 8 8 7 7 6 5 5
17 19 19 19 19 19 19 19 18 18 17 17 16 16 15 15 15 14 14 14 13 12 12 12 11 10 10 9 8 7 7 7 7 7 7 6 6 5 5 4 2 2 3 4 5 6 7 8 9 10 11 11 11 11 12 12 12 13 14 12 10 8 5 6 6 4 1 2 4 4 3 1 4 6 7 9 10 10 10 9 8 8 8 7 6
18 18 18 18 19 19 19 19 18 18 18 17 16 16 16 15 15 15 14 13 13 13 12 12 11 10 10 10 9 8 8 8 7 7 7 6 5 5 4 3 2 2 3 4 5 6 8 9 10 10 10 12 12 11 12 11 11 13 14 13 11 9 6 5 5 4 1 2 3 2 2 1 3 5 7 9 10 11 11 10 8 7 8 8 7
19 18 18 19 19 20 19 19 18 18 18 17 17 17 16 16 15 15 14 14 13 13 13 12 11 11 11 10 9 9 9 8 8 8 7 6 5 4 3 3 3 3 4 6 7 8 8 9 9 9 9 11 12 11 11 10 10 12 13 13 12 10 8 6 5 3 1 3 2 2 1 1 2 3 5 6 8 10 11 11 9 8 9 9 9
19 18 18 19 19 19 19 19 18 18 18 17 17 17 16 16 16 15 15 14 14 13 13 12 12 11 11 10 10 10 9 8 8 8 7 6 5 3 2 3 4 5 6 7 8 8 9 9 10 10 8 10 11 10 10 9 9 10 11 12 12 9 8 6 5 3 2 4 3 3 3 3 2 3 3 4 6 8 9 10 10 10 10 10 10
20 19 19 19 19 19 19 19 18 18 18 18 18 18 17 16 16 15 15 15 14 14 14 13 12 11 11 11 11 11 10 9 9 8 7 6 4 3 2 4 5 6 7 7 8 8 8 9 9 9 8 8 8 8 8 8 8 9 10 11 10 8 7 5 3 2 1 3 4 4 4 4 4 4 4 4 5 6 7 7 8 8 8 8 7
21 21 21 21 20 20 19 19 19 19 19 19 19 19 18 17 16 15 15 14 14 14 14 13 12 12 12 12 12 12 11 10 10 9 7 6 4 4 4 5 6 6 7 7 8 7 7 7 6 6 7 7 7 7 7 8 8 8 8 9 9 8 7 5 4 2 1 2 4 4 5 5 5 6 6 5 5 6 6 6 6 6 6 6 5
23 23 23 23 22 22 21 20 20 19 20 20 20 19 18 17 16 14 12 12 13 14 13 12 12 12 12 13 13 12 12 11 10 9 8 7 5 5 5 6 7 7 7 7 7 6 5 4 5 6 7 7 7 8 8 8 8 8 7 7 9 9 8 6 4 3 3 2 3 4 5 6 6 7 7 8 8 8 7 7 7 7 7 7 6
25 25 25 24 23 23 22 21 21 21 21 20 19 17 16 15 13 11 10 10 11 11 11 11 11 12 12 13 12 12 13 12 11 9 8 8 6 5 6 6 7 7 7 6 5 3 2 4 5 6 7 7 8 8 9 9 8 8 7 8 9 9 8 6 4 3 3 2 2 4 4 4 5 5 6 7 8 9 9 8 8 8 8 8 8
26 27 26 25 24 23 23 22 22 22 21 19 18 16 14 12 11 9 9 10 10 10 9 9 10 12 13 13 13 13 13 13 12 10 9 8 6 6 6 7 8 7 6 4 2 1 4 6 6 7 8 8 8 9 10 10 9 9 9 9 9 9 8 7 4 3 3 2 0 2 2 3 4 4 4 5 7 8 9 8 8 8 8 9 9
26 26 25 25 25 25 24 24 24 22 21 20 18 15 13 12 11 10 10 10 11 11 11 12 13 13 14 14 14 14 14 13 12 11 10 8 7 7 7 8 7 5 3 2 2 5 6 7 8 8 8 9 9 10 10 10 9 10 9 9 9 9 9 8 6 4 4 3 2 2 3 3 4 3 2 3 4 6 7 8 9 9 9 9 10
27 27 27 26 26 25 24 24 23 22 21 20 18 16 15 14 13 13 13 14 14 14 16 16 17 17 17 17 16 15 15 14 13 12 10 8 8 8 8 8 5 3 3 4 5 7 8 9 9 9 8 9 9 9 9 9 9 9 9 9 9 9 9 9 7 5 5 5 5 6 6 5 3 2 2 2 2 2 3 6 7 8 9 9 9
29 28 27 26 25 24 23 23 22 21 20 19 19 19 18 17 17 17 17 17 17 15 14 13 15 17 18 17 16 16 16 15 14 13 11 9 9 8 8 7 5 4 5 7 8 9 9 8 8 8 7 7 8 8 8 8 8 9 9 9 9 9 10 9 8 7 7 7 7 8 8 7 5 4 5 5 4 2 1 2 4 5 7 7 8
29 28 27 25 23 23 23 23 23 22 21 20 20 20 20 19 19 19 18 16 13 9 6 5 8 10 13 15 16 16 16 15 15 13 12 10 9 9 8 7 6 6 7 9 10 9 9 8 7 7 6 7 7 8 8 8 8 8 9 9 9 9 10 10 9 8 8 8 9 9 9 8 7 6 6 7 6 5 4 3 3 4 4 6 7
27 27 26 25 24 25 25 25 24 23 22 22 22 22 21 21 20 20 18 16 12 8 5 5 6 8 11 15 16 16 16 15 15 14 12 11 10 9 8 7 8 9 9 10 10 9 8 7 6 6 6 7 7 8 9 9 9 9 9 8 8 9 9 9 9 9 8 8 9 9 9 9 9 7 6 6 6 6 7 8 9 9 8 7 7
26 26 26 26 25 26 26 26 26 25 24 24 23 22 22 21 21 20 19 17 14 12 11 10 10 10 12 15 16 17 16 16 15 14 12 11 10 9 8 8 10 10 11 11 10 8 7 7 6 5 5 7 8 9 10 11 11 11 10 9 8 8 9 9 9 9 9 8 8 9 9 9 9 8 6 5 5 4 6 7 9 11 12 11 9
25 27 27 26 25 25 26 26 26 26 26 26 25 24 23 22 22 22 21 18 16 15 16 15 14 14 14 16 17 17 17 16 15 13 12 11 10 9 9 10 11 11 12 11 10 8 7 7 5 4 5 7 8 10 11 12 12 12 12 11 10 9 9 9 9 8 8 8 8 9 9 9 9 8 7 6 4 3 4 6 7 9 11 12 11
24 25 26 27 27 27 27 27 27 26 26 26 26 25 24 24 24 23 22 20 18 18 18 18 18 17 17 19 19 19 18 17 15 13 12 11 10 10 10 11 12 12 12 12 10 9 8 7 6 6 6 7 9 10 11 12 13 13 12 12 11 10 9 8 8 8 8 8 8 8 8 9 9 9 8 7 5 3 3 4 6 7 8 10 12
24 25 26 28 29 29 29 29 28 27 27 27 26 26 25 25 24 23 22 21 20 20 20 19 19 18 18 19 20 20 19 19 17 15 13 12 11 11 11 13 13 13 13 12 10 9 8 8 7 7 7 8 9 10 11 12 13 13 13 12 11 10 9 8 7 7 7 7 7 7 7 7 8 9 9 8 7 4 3 3 5 7 8 9 11
Wind_Direction
140 142 141 145 141 137 137 136 138 141 138 131 127 125 127 132 131 131 128 125 122 119 117 113 112 110 109 107 107 107 104 97 91 86 81 78 76 75 73 73 75 78 81 87 95 95 93 95 99 95 84 74 69 65 59 58 55 49 45 47 51 51 45 44 68 101 109 116 123 130 132 130 131 131 132 139 158 180 189 193 194 199 202 195 196
143 146 144 145 141 138 139 138 139 139 135 132 132 130 131 132 130 129 127 124 122 119 116 114 113 110 109 108 106 104 99 95 89 83 79 77 74 72 72 73 77 80 84 88 92 91 89 84 83 81 76 71 69 68 66 68 62 53 50 50 53 56 52 49 65 105 120 120 123 126 128 127 124 121 118 121 131 147 162 170 176 182 183 179 181
147 145 143 141 139 137 139 139 141 140 138 136 135 135 134 133 130 129 126 123 121 118 116 114 113 110 109 106 103 100 97 94 88 84 82 79 77 74 74 76 77 80 82 85 86 86 86 80 74 71 69 70 72 74 74 76 69 58 57 55 57 62 59 56 63 100 125 122 123 125 127 127 122 118 116 117 122 133 146 152 157 161 161 162 168
145 142 142 139 137 136 138 140 142 143 141 139 137 137 136 133 130 128 125 123 120 118 118 115 113 109 106 103 101 98 96 92 89 88 84 80 78 77 78 78 79 81 82 82 79 79 79 80 76 70 68 69 73 76 77 77 70 62 62 62 61 63 62 61 64 91 125 124 124 125 123 123 117 118 119 118 119 127 138 144 148 151 153 154 156
143 141 142 140 138 138 139 141 143 144 142 140 140 139 136 133 129 127 124 122 121 120 119 115 111 107 103 103 102 99 96 93 91 87 83 81 79 81 83 80 80 84 88 86 78 75 74 75 76 74 71 68 72 77 78 76 74 68 65 64 63 64 63 63 65 82 118 126 121 122 121 118 114 117 120 118 115 117 124 133 142 146 148 148 148
141 141 141 141 139 139 140 143 145 145 144 143 142 140 137 133 130 127 125 124 123 121 117 112 109 106 105 106 103 98 95 92 88 84 82 82 84 86 83 81 82 84 88 87 79 76 76 76 74 74 75 72 75 81 81 77 83 80 70 64 63 65 63 65 67 76 103 122 120 120 119 115 114 115 116 112 107 104 105 111 121 132 138 138 140
142 141 141 141 140 141 143 146 147 147 146 145 144 141 138 134 132 129 127 125 123 119 114 111 109 108 109 106 99 95 92 89 84 81 82 84 88 87 82 79 80 83 84 81 77 75 79 79 73 71 73 75 80 85 79 74 83 83 74 65 61 66 64 65 70 75 91 111 117 117 116 113 113 113 112 107 100 97 97 98 101 108 119 123 128
145 144 144 143 143 144 145 148 149 148 147 147 146 143 139 135 133 131 128 126 121 117 113 111 109 110 108 102 96 93 90 85 83 83 84 86 89 87 83 79 78 81 80 76 72 72 78 78 71 68 70 74 78 81 74 71 77 76 72 66 60 65 65 64 70 77 84 99 110 114 114 111 112 113 113 107 98 93 94 95 96 99 103 108 112
147 146 146 145 145 147 148 150 150 150 149 149 148 145 141 138 136 133 129 124 120 116 113 111 111 110 106 100 96 92 88 83 84 85 86 87 89 88 86 84 81 78 75 72 69 72 77 78 73 70 70 72 74 75 73 71 72 70 71 68 62 61 64 64 68 76 83 92 101 109 110 106 109 111 110 108 99 91 92 93 94 98 103 109 110
148 147 147 148 148 150 151 152 152 150 151 151 150 147 144 142 140 135 130 124 120 117 114 113 112 110 104 99 95 91 87 85 84 84 87 89 88 87 88 90 86 77 72 70 69 73 77 78 76 74 71 72 73 73 73 70 68 66 67 68 65 60 63 67 69 73 80 88 95 102 104 102 106 109 107 106 96 87 88 91 91 96 103 113 117
149 149 149 151 152 153 153 154 153 152 152 153 152 151 148 146 142 135 130 125 121 118 115 115 114 110 104 99 95 92 88 85 84 86 88 89 89 88 90 91 87 80 76 73 70 72 76 78 77 77 75 74 75 76 76 73 69 65 64 66 66 64 66 70 72 73 78 86 93 98 101 99 100 105 109 108 100 91 88 90 87 89 98 107 115
150 151 152 153 155 155 156 156 155 153 153 154 154 153 151 148 142 136 132 127 123 120 119 118 116 111 105 101 97 95 90 86 86 88 89 89 90 89 90 89 85 81 79 76 72 72 75 77 78 80 80 77 76 77 79 78 74 70 66 64 66 71 72 73 75 76 79 84 93 100 103 104 102 103 107 108 107 103 98 97 87 80 87 96 105
152 153 154 155 156 156 157 157 156 155 153 154 156 155 153 149 142 138 134 128 125 124 123 122 119 113 107 103 100 98 91 89 90 90 89 89 89 87 87 85 84 82 81 79 76 75 74 75 76 77 77 76 75 75 77 79 77 75 71 66 70 77 77 75 78 84 85 86 92 101 107 111 112 112 112 109 110 110 106 107 97 82 84 90 98
154 154 155 156 157 158 158 158 158 155 154 155 157 157 154 149 144 141 136 131 129 128 127 126 123 116 108 103 102 101 95 95 95 93 90 89 89 86 83 82 82 82 83 81 75 70 66 67 68 66 66 67 70 70 70 71 72 73 76 74 77 84 81 78 82 90 93 92 96 102 109 115 120 122 121 117 113 110 111 116 107 92 98 103 104
156 157 157 158 160 159 157 159 158 156 155 155 157 157 154 150 146 143 139 136 133 132 133 133 127 116 108 105 104 100 98 100 99 96 93 89 88 86 83 82 82 81 80 78 71 64 60 59 60 61 59 57 59 61 62 65 69 74 81 82 84 90 85 80 84 91 96 97 97 100 107 115 122 126 124 121 120 120 129 131 117 108 114 118 121
159 162 161 160 163 160 157 159 159 158 156 156 158 157 155 151 147 145 143 140 138 139 140 136 127 115 110 110 103 99 103 106 104 100 93 88 86 86 86 85 82 78 73 72 70 64 60 58 59 61 57 52 51 55 60 63 71 78 81 80 82 88 90 85 83 88 95 95 91 89 95 104 113 124 130 126 123 129 136 135 136 134 118 115 127
162 166 164 164 166 161 157 160 160 159 159 158 158 158 156 152 149 148 146 145 144 145 143 137 125 118 118 114 105 103 110 111 109 104 96 90 86 86 87 87 80 73 71 71 70 65 63 61 60 62 59 53 49 53 58 60 67 77 78 79 82 87 92 91 85 85 91 94 90 81 79 81 88 105 123 126 125 133 136 129 133 132 117 110 119
165 168 167 167 168 163 160 162 162 162 161 160 159 158 157 153 152 151 151 150 150 149 144 137 129 126 127 119 110 108 111 113 114 111 104 95 86 83 83 82 77 73 76 74 70 67 66 65 63 61 58 53 50 49 51 52 55 61 66 75 83 85 87 90 90 88 92 98 99 94 85 77 73 78 87 100 114 129 135 127 126 124 116 110 110
167 169 170 170 170 167 166 165 164 163 162 161 159 159 158 156 156 155 156 155 154 151 145 139 134 134 136 128 118 109 106 107 111 113 109 97 75 72 77 75 76 79 79 75 71 67 66 67 64 57 51 47 47 45 45 43 41 45 56 68 78 81 82 85 94 99 101 105 108 109 103 95 86 80 78 81 89 97 108 117 124 124 121 119 114
170 171 172 172 173 173 173 171 167 165 163 162 161 161 159 158 159 160 160 160 157 151 146 144 141 144 145 138 127 115 106 104 105 107 106 97 68 64 78 85 86 83 77 73 71 68 63 61 59 52 44 40 39 40 41 38 31 31 47 62 68 72 74 78 92 105 110 113 114 112 109 105 98 92 87 85 85 87 91 98 114 125 126 128 126
172 172 174 174 174 175 176 175 171 166 164 164 164 163 163 162 163 163 163 161 158 153 150 150 150 154 153 144 137 128 119 115 110 105 98 90 80 71 80 89 89 84 75 71 70 67 61 53 50 47 41 34 33 36 40 39 30 20 26 33 40 55 64 74 91 105 109 112 114 113 111 106 100 99 95 88 89 89 93 97 104 116 126 130 137
172 172 173 174 174 176 177 177 174 170 167 166 166 167 166 167 166 165 165 162 158 155 155 157 160 161 157 152 152 146 136 125 113 102 90 80 85 89 87 87 83 77 67 63 61 58 56 51 45 42 38 33 31 33 35 34 29 19 10 357 343 358 35 73 102 119 119 115 115 119 119 114 108 106 106 100 95 91 90 89 94 106 121 136 147
173 172 171 171 173 175 175 176 176 175 171 169 169 170 170 171 170 167 165 163 160 160 161 165 168 167 162 159 156 149 138 125 111 96 82 75 85 90 91 92 84 71 59 55 50 44 43 43 40 35 35 32 27 27 25 19 18 13 0 345 314 268 236 164 136 144 145 147 138 137 133 130 125 114 111 110 102 94 90 80 77 87 97 116 135
172 171 171 170 171 172 172 174 176 177 174 172 172 172 173 174 174 171 167 165 165 166 168 172 174 171 166 162 150 143 139 126 112 98 86 80 84 89 86 84 79 65 53 45 35 30 26 31 33 27 26 27 23 19 14 11 9 8 5 4 0 309 206 185 170 163 167 173 169 168 160 149 145 135 128 113 100 96 91 81 73 71 70 69 72
173 173 173 171 170 170 171 174 175 176 174 173 172 173 175 175 174 173 171 171 172 172 173 176 178 173 167 159 148 143 139 124 113 103 95 84 79 87 70 51 49 44 42 33 22 16 12 21 27 24 20 19 18 13 7 6 6 5 10 17 25 36 81 155 168 170 179 187 189 188 188 190 175 157 150 130 102 99 93 87 79 72 69 66 65
176 175 173 172 172 171 171 173 173 173 173 172 172 174 174 173 173 174 175 176 178 178 178 179 179 174 167 159 152 145 136 124 114 102 97 80 53 41 25 15 19 20 22 21 16 8 5 11 17 21 20 15 12 8 3 2 1 2 8 14 17 25 36 59 147 182 195 205 208 203 203 200 195 193 167 146 132 115 93 77 75 69 67 63 64
176 175 175 174 174 173 172 171 171 172 172 171 171 172 172 173 174 175 177 181 183 182 183 183 181 175 169 163 154 146 136 127 118 105 90 63 44 18 354 356 6 7 6 6 0 354 356 4 11 16 18 14 7 2 360 358 357 358 5 10 7 6 11 13 4 270 224 225 222 213 210 198 193 208 194 167 175 196 221 36 59 62 63 56 54
177 176 176 176 175 174 173 171 172 172 172 172 170 170 172 174 177 179 180 183 185 186 188 187 183 177 172 168 159 151 145 136 125 114 100 62 67 2 326 352 3 353 351 350 339 339 349 357 6 11 12 12 6 359 357 354 353 353 0 9 4 353 351 355 3 351 299 248 231 216 208 205 206 211 212 200 190 193 200 238 281 319 106 83 61
175 176 177 176 175 175 174 173 173 173 174 173 171 173 175 178 180 182 184 185 187 190 192 190 184 178 174 170 165 163 160 155 152 161 192 235 227 254 281 322 344 336 338 337 330 336 348 351 357 4 4 2 1 357 355 352 351 350 354 7 8 353 338 338 358 6 354 313 239 211 205 207 207 207 213 209 200 202 199 215 241 249 247 239 264
172 176 177 176 176 176 175 176 176 176 176 175 175 177 179 182 183 186 188 187 191 194 193 189 183 179 176 174 172 172 172 177 186 195 211 230 233 238 252 283 306 318 325 330 332 338 346 348 351 357 357 353 353 351 349 347 349 350 350 359 8 360 333 323 339 353 358 4 18 182 196 202 192 186 201 209 206 206 210 218 221 229 248 264 266
176 177 177 178 178 177 176 177 179 179 179 179 181 184 184 185 188 190 191 191 194 194 192 190 184 182 183 179 178 179 183 191 199 209 220 226 231 236 246 270 289 307 322 326 333 336 341 346 344 346 348 347 348 345 339 338 343 351 351 352 0 360 330 314 321 334 359 21 38 97 161 191 183 173 186 208 216 210 213 220 216 216 225 230 237
176 175 177 180 180 178 179 180 182 183 182 183 186 188 189 189 193 194 192 195 195 191 192 191 186 187 187 184 185 186 190 196 202 214 223 227 233 239 246 264 282 300 320 325 330 332 336 341 338 336 338 339 342 340 335 334 335 344 352 352 353 353 326 305 309 323 356 26 36 58 103 167 177 175 178 196 219 220 222 223 217 216 218 224 227
175 175 180 182 181 181 183 184 186 186 185 188 191 192 193 194 196 196 196 198 195 191 193 193 193 192 190 191 191 189 192 198 204 214 224 229 232 240 249 257 270 301 324 326 330 332 333 333 331 329 329 333 338 335 333 333 329 333 344 350 349 345 318 295 298 309 347 30 43 48 63 143 173 182 179 188 211 223 228 231 230 227 225 229 231
179 182 183 182 182 183 186 188 188 188 188 191 193 193 196 197 197 197 199 199 194 193 196 196 198 196 193 195 194 191 196 202 208 214 222 228 231 241 252 256 270 307 320 320 325 328 328 328 328 328 327 329 334 333 329 329 325 327 336 342 343 339 311 283 284 289 324 62 64 57 53 132 180 188 185 189 206 219 226 232 240 244 241 238 237
185 186 185 183 185 186 189 191 190 189 190 193 193 193 196 198 197 198 201 200 196 196 197 199 201 200 199 198 196 198 204 210 214 219 224 228 235 247 255 262 283 305 310 315 320 322 323 324 326 327 320 319 327 331 326 321 318 321 329 335 338 335 317 283 268 263 228 101 96 82 76 132 178 185 188 193 202 213 224 229 234 243 250 251 246
189 187 186 187 187 189 191 191 191 190 192 194 193 195 196 196 196 198 201 200 198 198 199 201 202 203 203 204 204 205 210 215 219 224 230 234 242 254 263 279 294 304 312 317 320 318 317 319 320 320 315 311 316 324 325 321 316 319 325 329 334 335 326 306 279 255 163 123 140 179 190 182 179 182 184 192 202 210 222 230 231 233 243 252 254
191 188 189 191 190 191 192 191 190 191 194 196 196 197 198 197 196 197 200 199 199 200 202 203 204 205 206 209 212 212 216 220 223 227 231 236 246 255 268 285 293 303 313 318 318 314 312 314 311 310 310 306 306 315 325 330 328 326 326 325 330 336 334 329 308 285 146 142 171 205 232 224 215 217 203 198 206 212 221 230 233 233 237 244 252
194 192 192 194 194 195 194 191 191 192 194 197 198 200 200 199 199 199 200 201 201 203 205 205 206 209 211 214 217 218 220 224 226 228 233 239 243 251 266 281 289 302 313 313 309 306 305 307 306 308 316 318 317 323 333 343 344 334 329 326 332 342 345 352 349 324 158 170 193 208 235 242 234 234 231 222 218 219 223 228 230 231 231 231 236
197 195 195 195 196 197 196 195 194 194 196 197 199 202 203 202 203 203 203 203 204 206 208 207 209 213 215 218 219 218 221 224 226 228 235 241 240 253 270 280 290 301 308 303 298 300 300 305 317 328 341 349 349 351 357 2 358 347 342 336 343 360 2 7 30 57 147 212 226 219 229 240 242 241 239 239 232 222 221 225 229 226 223 224 223
201 199 198 197 197 197 197 198 197 198 199 199 200 202 204 205 207 210 210 206 206 209 211 211 214 217 218 221 221 219 221 223 226 230 234 238 239 255 271 280 291 299 298 294 291 293 303 336 1 4 8 14 12 15 20 18 12 6 2 356 3 19 24 24 43 88 131 200 243 242 240 241 246 250 247 245 239 230 226 227 233 233 234 239 238
205 202 201 200 198 198 198 198 200 202 203 202 202 205 207 209 211 216 218 213 211 212 214 216 217 219 220 223 223 221 223 225 228 230 232 236 242 256 271 280 290 295 291 284 282 292 13 34 30 30 32 33 30 33 34 32 30 25 21 18 23 32 42 47 51 78 111 155 231 248 252 258 261 259 254 248 240 235 233 234 237 241 245 251 253
208 205 203 201 200 200 200 199 202 204 205 205 205 206 208 210 211 216 219 218 218 217 218 220 219 221 224 226 226 225 226 228 230 231 232 237 245 257 270 280 288 291 282 269 270 64 72 63 54 54 55 54 52 51 48 45 43 42 37 31 34 39 49 58 56 51 61 69 269 255 268 300 300 283 261 252 244 239 240 244 248 252 254 258 259
212 209 206 204 203 203 201 200 203 204 205 205 204 203 204 206 206 205 208 210 213 216 218 219 218 220 224 226 227 227 228 230 231 233 235 239 245 258 269 278 284 282 257 200 122 98 91 82 75 71 70 69 65 61 56 51 49 49 46 40 39 40 45 54 54 41 29 21 7 353 5 353 325 307 278 263 252 242 240 244 251 258 263 266 268
213 211 208 206 205 204 203 202 202 203 204 203 202 204 206 207 204 201 204 206 208 211 215 219 220 221 224 226 227 228 230 231 232 233 235 238 245 255 265 273 273 245 185 143 123 112 101 93 87 81 78 75 68 63 57 51 47 46 43 39 39 38 39 45 47 36 21 12 8 9 20 21 358 336 342 341 309 258 239 241 249 259 267 271 274
213 212 209 207 206 204 203 202 203 203 203 203 203 207 209 209 207 205 207 210 213 216 218 225 229 229 230 232 231 231 232 233 233 233 233 236 244 253 262 266 248 201 165 138 128 119 110 104 95 87 79 71 64 55 48 44 41 40 38 31 29 30 32 38 39 32 22 15 11 12 21 25 21 16 17 21 28 38 38 249 257 268 276 281 278
212 211 210 208 205 204 203 203 203 203 203 205 206 209 210 211 213 215 217 221 224 224 223 229 232 234 236 234 233 233 233 233 234 233 233 235 242 250 258 252 218 182 159 143 135 127 120 113 101 91 78 65 55 45 39 37 35 33 33 29 24 25 32 38 37 31 24 17 12 11 13 18 24 28 25 26 26 21 10 349 331 321 316 312 299
212 211 211 208 205 204 204 205 205 205 206 208 211 212 213 214 218 222 226 231 233 226 219 224 219 219 226 227 227 228 230 231 233 233 232 234 238 246 249 229 197 174 158 148 143 136 128 117 107 97 79 62 54 48 45 43 42 38 35 32 29 28 34 41 40 34 27 19 13 10 8 9 12 19 26 27 20 5 354 348 343 339 341 340 326
213 213 212 210 208 207 207 208 208 209 210 213 216 216 217 219 222 225 229 232 232 225 224 227 223 216 216 219 219 221 225 228 231 233 230 230 234 242 235 206 186 173 161 154 150 144 131 120 110 96 78 68 60 53 49 47 48 47 44 42 40 38 38 42 42 39 32 25 17 11 7 4 2 5 14 23 23 5 345 340 334 331 333 336 337
216 217 217 214 213 213 212 212 212 213 215 217 219 219 220 222 224 227 230 233 232 229 227 227 225 220 215 216 216 218 224 229 231 230 227 225 229 234 219 193 182 174 165 161 158 150 134 123 112 97 86 77 67 55 49 49 49 48 49 50 51 51 47 44 41 37 33 28 20 13 6 0 357 359 3 7 16 8 332 325 324 322 322 325 329
217 219 221 220 219 218 217 217 216 217 218 220 222 222 223 225 226 227 229 231 232 232 232 231 229 226 219 216 217 218 223 229 230 227 225 223 226 227 209 189 184 177 170 167 162 154 141 129 117 109 101 86 72 61 52 49 48 47 47 48 50 52 53 50 41 33 29 23 17 12 4 359 356 356 356 355 2 4 333 320 318 315 311 311 315
213 215 218 221 221 221 220 219 219 220 221 224 225 226 227 228 228 228 230 231 233 233 233 233 234 234 228 222 221 221 223 227 227 224 223 222 224 221 203 190 186 181 176 173 167 158 152 142 126 113 101 87 75 63 54 49 47 44 42 42 42 43 47 48 43 33 27 21 15 10 3 359 356 351 348 350 353 351 337 321 311 308 305 302 303
Height
3172 3173 3175 3175 3176 3177 3178 3179 3180 3182 3182 3183 3184 3184 3185 3187 3189 3191 3192 3194 3195 3196 3198 3199 3200 3201 3202 3202 3203 3203 3203 3204 3204 3204 3204 3204 3204 3204 3204 3204 3204 3205 3205 3205 3205 3205 3205 3205 3206 3206 3206 3205 3205 3205 3205 3205 3206 3205 3205 3205 3204 3203 3202 3201 3200 3199 3199 3200 3200 3201 3202 3203 3203 3204 3205 3205 3206 3207 3207 3207 3208 3208 3208 3209 3209
3173 3174 3175 3176 3176 3177 3179 3180 3181 3182 3183 3185 3186 3187 3188 3189 3191 3192 3194 3195 3197 3198 3199 3200 3201 3202 3203 3203 3204 3204 3204 3205 3205 3205 3205 3205 3205 3205 3205 3205 3206 3206 3206 3206 3206 3206 3206 3206 3206 3207 3206 3206 3206 3206 3206 3206 3206 3206 3206 3205 3205 3204 3203 3202 3201 3200 3200 3201 3201 3202 3203 3203 3204 3205 3205 3206 3206 3207 3207 3207 3208 3208 3208 3209 3209
3174 3175 3176 3177 3178 3178 3180 3181 3183 3184 3185 3186 3187 3189 3190 3191 3192 3194 3196 3197 3198 3200 3201 3202 3202 3203 3204 3204 3204 3205 3205 3206 3206 3206 3206 3206 3206 3206 3206 3206 3207 3206 3206 3207 3207 3206 3207 3207 3207 3207 3207 3207 3207 3207 3207 3207 3207 3207 3206 3206 3205 3204 3204 3203 3202 3202 3201 3201 3202 3203 3203 3204 3204 3205 3206 3207 3207 3207 3207 3208 3208 3208 3208 3209 3210
3175 3176 3177 3178 3179 3180 3181 3183 3184 3185 3186 3188 3189 3190 3192 3193 3194 3196 3197 3199 3200 3201 3202 3203 3203 3204 3205 3205 3205 3206 3206 3207 3207 3207 3208 3208 3207 3207 3207 3207 3207 3207 3207 3207 3207 3207 3207 3207 3207 3207 3207 3207 3207 3208 3208 3207 3207 3207 3207 3206 3206 3205 3204 3204 3203 3202 3202 3202 3203 3204 3204 3205 3205 3206 3206 3207 3207 3208 3208 3208 3208 3208 3208 3209 3209
3176 3177 3178 3179 3180 3181 3182 3184 3185 3187 3188 3189 3191 3192 3193 3194 3196 3197 3199 3200 3201 3202 3203 3204 3205 3205 3206 3206 3206 3207 3208 3208 3208 3209 3209 3209 3208 3208 3208 3208 3208 3208 3208 3207 3207 3208 3208 3208 3208 3208 3207 3208 3208 3208 3208 3208 3208 3207 3207 3207 3206 3206 3205 3204 3204 3203 3203 3204 3204 3204 3205 3206 3206 3207 3207 3207 3208 3208 3208 3208 3208 3208 3209 3209 3209
3177 3178 3180 3181 3181 3182 3184 3185 3186 3188 3189 3191 3192 3194 3195 3196 3198 3199 3200 3202 3203 3204 3204 3205 3206 3206 3207 3207 3208 3208 3209 3209 3209 3210 3210 3209 3209 3209 3209 3209 3209 3208 3208 3208 3208 3208 3208 3208 3208 3208 3208 3208 3208 3209 3209 3208 3208 3208 3207 3207 3207 3206 3206 3205 3205 3204 3204 3205 3205 3205 3206 3207 3207 3208 3208 3208 3208 3208 3208 3209 3209 3209 3209 3209 3210
3178 3180 3181 3182 3183 3184 3185 3186 3187 3189 3191 3192 3194 3195 3196 3198 3199 3201 3202 3203 3204 3205 3206 3206 3207 3208 3208 3209 3209 3210 3210 3210 3210 3210 3210 3210 3211 3211 3210 3210 3209 3209 3209 3209 3209 3209 3209 3208 3209 3209 3209 3209 3209 3209 3209 3209 3209 3208 3208 3208 3208 3207 3206 3206 3206 3205 3205 3206 3206 3207 3207 3208 3208 3208 3209 3208 3209 3209 3209 3209 3209 3210 3210 3210 3210
3179 3181 3182 3183 3184 3185 3186 3187 3188 3190 3192 3194 3195 3197 3198 3199 3201 3202 3203 3204 3205 3206 3207 3207 3208 3209 3210 3210 3211 3211 3211 3211 3211 3211 3211 3211 3212 3212 3211 3210 3210 3210 3209 3210 3210 3210 3210 3210 3210 3210 3210 3210 3210 3210 3210 3210 3209 3209 3208 3209 3209 3208 3207 3207 3207 3207 3207 3207 3207 3208 3208 3209 3209 3209 3209 3209 3209 3210 3210 3210 3210 3210 3211 3211 3212
3180 3181 3183 3184 3185 3186 3187 3188 3189 3191 3193 3195 3197 3198 3200 3201 3202 3203 3204 3205 3206 3207 3208 3209 3209 3210 3211 3212 3212 3212 3212 3212 3212 3212 3212 3212 3213 3212 3212 3211 3210 3210 3210 3210 3211 3211 3211 3211 3211 3211 3211 3211 3211 3211 3211 3211 3210 3210 3209 3209 3209 3209 3209 3208 3208 3208 3208 3208 3208 3209 3209 3209 3210 3210 3210 3210 3210 3210 3210 3211 3211 3211 3212 3212 3213
3180 3182 3183 3185 3186 3187 3188 3189 3190 3192 3194 3196 3198 3199 3201 3202 3203 3205 3205 3206 3207 3208 3209 3210 3210 3211 3212 3213 3213 3213 3213 3213 3213 3213 3213 3213 3213 3213 3212 3212 3211 3211 3211 3211 3212 3212 3212 3212 3212 3212 3212 3212 3212 3212 3212 3212 3211 3211 3211 3210 3210 3210 3210 3209 3209 3209 3209 3209 3209 3209 3210 3210 3211 3211 3211 3211 3211 3211 3212 3212 3212 3213 3213 3213 3214
3181 3182 3184 3186 3187 3188 3189 3190 3191 3193 3195 3197 3199 3201 3202 3203 3204 3206 3207 3208 3208 3209 3210 3211 3212 3212 3213 3213 3214 3214 3214 3214 3214 3214 3214 3214 3214 3213 3213 3213 3212 3212 3212 3212 3213 3213 3213 3213 3213 3213 3213 3213 3213 3213 3213 3212 3212 3212 3212 3211 3211 3211 3210 3210 3210 3210 3210 3210 3210 3210 3211 3211 3211 3212 3212 3212 3212 3212 3213 3213 3213 3214 3214 3214 3215
3182 3183 3185 3186 3188 3189 3190 3191 3192 3194 3196 3198 3200 3202 3203 3204 3205 3206 3207 3208 3209 3210 3211 3212 3213 3213 3214 3214 3214 3214 3214 3215 3215 3215 3215 3215 3215 3214 3214 3214 3214 3213 3213 3213 3214 3214 3214 3214 3214 3213 3213 3213 3213 3213 3213 3213 3213 3212 3212 3212 3212 3211 3211 3211 3211 3210 3211 3211 3210 3211 3211 3211 3212 3212 3213 3213 3212 3213 3213 3214 3214 3215 3215 3216 3216
3182 3184 3186 3187 3189 3190 3191 3192 3193 3195 3197 3199 3201 3203 3204 3205 3206 3207 3208 3209 3210 3211 3212 3212 3213 3214 3214 3215 3215 3215 3215 3216 3216 3216 3216 3216 3215 3215 3215 3215 3215 3214 3214 3215 3215 3215 3215 3215 3214 3214 3214 3214 3214 3214 3214 3213 3213 3213 3213 3212 3212 3212 3212 3211 3211 3211 3211 3211 3211 3211 3212 3212 3212 3213 3213 3213 3213 3214 3214 3215 3215 3216 3216 3217 3217
3183 3185 3187 3188 3190 3191 3192 3193 3194 3196 3198 3200 3202 3203 3205 3206 3207 3208 3209 3210 3210 3211 3212 3213 3214 3214 3215 3215 3216 3216 3216 3217 3217 3217 3216 3216 3216 3216 3216 3216 3216 3216 3216 3216 3216 3216 3216 3216 3215 3215 3215 3215 3215 3214 3214 3214 3214 3213 3213 3213 3213 3212 3212 3212 3212 3212 3212 3212 3212 3212 3212 3212 3213 3213 3214 3214 3214 3215 3215 3216 3215 3216 3216 3217 3217
3185 3186 3188 3189 3190 3191 3192 3194 3195 3197 3199 3201 3202 3204 3205 3206 3207 3208 3209 3210 3211 3212 3213 3214 3214 3215 3215 3216 3216 3217 3217 3217 3217 3217 3217 3217 3217 3217 3217 3217 3217 3217 3217 3217 3217 3217 3216 3216 3216 3216 3215 3215 3215 3215 3215 3214 3214 3214 3214 3213 3213 3213 3213 3213 3213 3213 3213 3213 3213 3213 3213 3213 3213 3213 3214 3214 3215 3215 3216 3216 3216 3216 3216 3216 3217
3186 3187 3189 3190 3191 3192 3193 3195 3196 3198 3200 3201 3203 3204 3206 3207 3208 3209 3210 3211 3212 3213 3214 3214 3215 3215 3216 3216 3217 3217 3218 3218 3218 3218 3218 3217 3218 3218 3218 3218 3218 3218 3218 3218 3218 3217 3217 3217 3217 3217 3216 3216 3216 3216 3215 3215 3215 3215 3214 3214 3213 3213 3213 3214 3214 3214 3214 3214 3214 3214 3214 3214 3214 3214 3214 3214 3215 3216 3216 3216 3216 3216 3216 3216 3217
3186 3188 3189 3190 3191 3192 3194 3195 3196 3198 3200 3202 3203 3205 3206 3207 3208 3209 3210 3211 3212 3213 3214 3215 3215 3216 3217 3217 3218 3218 3218 3219 3219 3218 3218 3218 3218 3219 3219 3219 3219 3219 3219 3219 3219 3218 3218 3218 3218 3217 3217 3216 3216 3216 3216 3216 3216 3216 3215 3215 3214 3214 3214 3214 3214 3215 3215 3215 3215 3216 3216 3215 3215 3215 3215 3215 3215 3216 3216 3216 3216 3216 3216 3216 3217
3186 3188 3190 3191 3192 3193 3194 3195 3197 3199 3200 3202 3203 3205 3206 3208 3209 3210 3211 3212 3213 3214 3215 3215 3216 3217 3217 3218 3218 3219 3219 3219 3219 3219 3219 3219 3219 3219 3219 3219 3219 3219 3219 3220 3219 3219 3219 3219 3219 3218 3218 3217 3217 3217 3217 3216 3216 3216 3216 3215 3215 3215 3215 3215 3215 3215 3215 3215 3216 3216 3216 3216 3216 3216 3216 3216 3216 3216 3216 3216 3216 3216 3216 3216 3216
3186 3188 3190 3191 3192 3193 3194 3196 3197 3199 3201 3202 3204 3205 3207 3208 3209 3210 3211 3212 3213 3214 3215 3216 3217 3217 3218 3218 3219 3219 3219 3219 3220 3220 3219 3219 3219 3220 3220 3220 3220 3220 3220 3220 3220 3220 3220 3220 3219 3219 3219 3218 3218 3217 3217 3217 3216 3216 3216 3216 3215 3215 3215 3215 3215 3215 3215 3216 3216 3216 3216 3216 3216 3216 3217 3217 3217 3216 3216 3216 3216 3216 3216 3216 3217
3187 3188 3190 3191 3192 3193 3195 3196 3198 3199 3201 3203 3204 3205 3207 3208 3210 3211 3212 3213 3214 3215 3215 3216 3217 3218 3218 3219 3219 3219 3220 3220 3220 3220 3220 3220 3220 3220 3220 3221 3221 3221 3221 3221 3221 3221 3221 3220 3220 3220 3219 3219 3218 3218 3218 3218 3217 3216 3216 3216 3216 3216 3216 3216 3216 3216 3216 3216 3216 3216 3216 3216 3216 3217 3217 3217 3217 3217 3217 3217 3217 3216 3216 3216 3217
3186 3188 3189 3191 3192 3194 3195 3197 3199 3200 3202 3203 3204 3206 3207 3209 3210 3211 3212 3213 3214 3215 3216 3217 3217 3218 3218 3219 3219 3220 3220 3220 3220 3220 3220 3220 3221 3221 3221 3221 3221 3221 3222 3222 3222 3222 3222 3221 3221 3221 3220 3219 3219 3218 3218 3218 3217 3217 3216 3216 3216 3216 3216 3216 3216 3216 3216 3216 3216 3216 3216 3217 3217 3217 3217 3217 3217 3217 3217 3217 3217 3217 3217 3217 3217
3186 3188 3189 3191 3192 3194 3195 3197 3199 3200 3202 3203 3205 3206 3208 3209 3210 3211 3212 3213 3214 3215 3216 3217 3218 3218 3219 3219 3219 3220 3220 3220 3221 3221 3221 3221 3221 3222 3222 3222 3222 3222 3222 3223 3222 3222 3222 3222 3222 3221 3221 3220 3219 3219 3219 3219 3218 3218 3217 3217 3216 3216 3216 3216 3216 3216 3216 3216 3216 3217 3217 3217 3217 3217 3218 3218 3218 3218 3217 3217 3217 3217 3217 3217 3218
3186 3188 3189 3191 3192 3194 3196 3197 3199 3201 3202 3204 3205 3206 3208 3209 3210 3211 3212 3213 3214 3215 3216 3217 3218 3218 3219 3219 3219 3220 3220 3220 3221 3221 3221 3222 3222 3222 3223 3223 3223 3223 3223 3223 3223 3223 3223 3222 3222 3222 3221 3221 3220 3219 3219 3219 3218 3218 3217 3217 3216 3216 3216 3216 3216 3216 3216 3216 3216 3217 3217 3217 3217 3218 3218 3218 3218 3218 3218 3218 3218 3218 3218 3218 3218
3187 3188 3190 3191 3192 3194 3196 3197 3199 3201 3202 3204 3205 3206 3208 3209 3210 3211 3212 3214 3215 3216 3217 3217 3218 3218 3219 3219 3219 3220 3220 3220 3221 3221 3222 3222 3222 3223 3223 3224 3224 3224 3224 3224 3224 3223 3223 3223 3223 3222 3222 3221 3220 3219 3219 3218 3218 3218 3217 3216 3215 3215 3215 3215 3215 3216 3216 3216 3216 3217 3217 3217 3218 3218 3218 3219 3219 3219 3219 3219 3219 3219 3219 3219 3219
3187 3189 3190 3191 3193 3194 3195 3197 3199 3201 3202 3204 3205 3206 3208 3209 3210 3211 3213 3214 3215 3216 3217 3217 3218 3218 3219 3219 3219 3220 3220 3220 3221 3222 3222 3223 3223 3223 3224 3224 3224 3224 3224 3224 3224 3224 3223 3223 3223 3223 3222 3221 3220 3220 3219 3218 3218 3217 3216 3215 3215 3214 3214 3215 3215 3215 3215 3216 3216 3217 3217 3218 3218 3218 3218 3219 3219 3219 3219 3219 3219 3219 3219 3219 3220
3187 3189 3190 3192 3193 3194 3195 3197 3199 3200 3202 3204 3205 3206 3208 3209 3210 3211 3213 3214 3215 3216 3217 3217 3218 3218 3219 3219 3219 3220 3220 3220 3221 3222 3222 3223 3223 3224 3224 3224 3224 3224 3225 3225 3224 3224 3223 3223 3223 3222 3222 3221 3220 3220 3219 3218 3217 3217 3216 3215 3214 3214 3214 3214 3215 3215 3215 3215 3216 3216 3217 3218 3218 3218 3218 3219 3219 3219 3220 3220 3220 3220 3220 3220 3220
3187 3189 3190 3192 3193 3194 3196 3197 3198 3200 3202 3203 3204 3206 3207 3209 3210 3211 3213 3214 3215 3216 3217 3217 3218 3218 3219 3219 3219 3220 3220 3221 3221 3222 3222 3223 3224 3224 3224 3224 3224 3224 3224 3224 3224 3224 3224 3223 3223 3222 3222 3221 3221 3220 3219 3218 3218 3217 3216 3215 3214 3214 3214 3214 3214 3214 3214 3215 3215 3216 3217 3217 3218 3218 3218 3219 3219 3219 3220 3220 3220 3221 3221 3221 3221
3188 3189 3190 3192 3193 3194 3196 3197 3198 3200 3201 3203 3204 3206 3207 3209 3210 3211 3213 3214 3215 3216 3216 3217 3218 3218 3219 3219 3220 3220 3220 3221 3221 3222 3222 3223 3224 3224 3224 3224 3224 3224 3224 3224 3224 3224 3223 3223 3223 3223 3222 3222 3221 3221 3220 3219 3218 3217 3216 3215 3214 3214 3214 3214 3214 3214 3214 3214 3214 3215 3216 3217 3218 3218 3218 3218 3219 3219 3219 3220 3220 3221 3221 3221 3221
3187 3189 3190 3192 3193 3194 3196 3197 3198 3200 3201 3203 3204 3206 3207 3209 3210 3211 3212 3213 3215 3215 3216 3217 3217 3218 3219 3219 3220 3220 3221 3221 3221 3222 3222 3223 3223 3224 3224 3224 3224 3224 3224 3224 3224 3223 3223 3223 3222 3222 3222 3222 3222 3221 3220 3219 3218 3217 3216 3216 3215 3214 3214 3214 3214 3213 3213 3213 3213 3214 3215 3216 3217 3218 3218 3218 3218 3218 3219 3220 3220 3220 3221 3221 3221
3187 3189 3190 3192 3193 3194 3196 3197 3199 3200 3201 3202 3204 3206 3207 3209 3210 3211 3212 3213 3214 3215 3216 3217 3217 3218 3219 3219 3220 3220 3220 3221 3222 3222 3222 3223 3223 3223 3224 3224 3224 3224 3224 3224 3224 3224 3223 3223 3222 3222 3222 3222 3221 3221 3220 3220 3219 3217 3216 3216 3215 3215 3214 3214 3214 3213 3213 3213 3213 3213 3214 3215 3216 3217 3218 3218 3218 3218 3218 3219 3220 3220 3221 3221 3221
3186 3188 3190 3191 3193 3194 3196 3197 3198 3199 3201 3202 3204 3205 3207 3208 3210 3211 3212 3213 3214 3215 3216 3216 3217 3218 3218 3219 3219 3220 3220 3221 3221 3222 3222 3223 3223 3223 3223 3224 3224 3224 3224 3224 3224 3224 3224 3224 3223 3223 3222 3222 3221 3220 3219 3219 3218 3218 3217 3216 3215 3215 3214 3214 3213 3213 3213 3212 3212 3213 3213 3214 3215 3217 3218 3217 3217 3218 3218 3218 3219 3220 3220 3220 3221
3185 3187 3189 3190 3192 3194 3195 3196 3198 3199 3200 3202 3203 3205 3206 3208 3209 3210 3211 3212 3213 3214 3215 3216 3217 3217 3218 3219 3219 3219 3220 3220 3221 3221 3222 3222 3223 3223 3223 3223 3224 3224 3224 3224 3224 3224 3224 3224 3223 3223 3222 3222 3221 3220 3219 3218 3217 3217 3217 3216 3215 3214 3214 3214 3213 3213 3212 3212 3212 3213 3213 3214 3215 3216 3217 3217 3217 3217 3217 3218 3219 3219 3220 3220 3220
3186 3187 3188 3190 3191 3193 3194 3196 3197 3198 3200 3201 3203 3204 3206 3207 3208 3210 3211 3212 3213 3214 3215 3216 3216 3217 3217 3218 3219 3219 3219 3220 3220 3221 3222 3222 3223 3223 3223 3223 3224 3224 3224 3224 3224 3224 3223 3223 3223 3222 3222 3222 3221 3220 3219 3217 3216 3216 3215 3215 3215 3214 3214 3214 3213 3213 3212 3212 3212 3212 3213 3214 3215 3215 3216 3217 3217 3216 3217 3218 3219 3219 3219 3219 3220
3185 3186 3187 3189 3191 3192 3194 3195 3196 3198 3199 3201 3202 3204 3205 3206 3208 3209 3210 3211 3212 3213 3214 3215 3215 3216 3217 3217 3218 3219 3219 3220 3220 3221 3221 3222 3222 3223 3223 3224 3224 3224 3224 3224 3224 3223 3223 3223 3223 3222 3222 3221 3220 3219 3218 3217 3216 3215 3214 3214 3214 3214 3214 3214 3213 3213 3212 3212 3212 3212 3213 3214 3214 3214 3215 3216 3216 3216 3216 3218 3219 3220 3220 3220 3220
3184 3185 3187 3188 3190 3191 3193 3194 3196 3197 3199 3200 3202 3203 3204 3206 3207 3208 3209 3210 3211 3212 3213 3214 3215 3215 3216 3217 3217 3218 3219 3219 3220 3220 3221 3222 3222 3223 3223 3224 3224 3224 3224 3223 3223 3223 3223 3222 3222 3222 3221 3221 3220 3219 3217 3216 3215 3214 3214 3213 3214 3214 3214 3213 3213 3213 3212 3212 3213 3213 3213 3213 3214 3214 3214 3215 3215 3215 3216 3217 3218 3219 3220 3220 3220
3183 3185 3186 3188 3189 3190 3192 3194 3195 3197 3198 3199 3201 3202 3204 3205 3206 3207 3208 3209 3210 3211 3212 3213 3214 3214 3215 3216 3217 3217 3218 3219 3219 3220 3221 3221 3222 3223 3223 3223 3223 3223 3223 3223 3223 3222 3222 3222 3221 3221 3221 3221 3219 3218 3217 3216 3215 3214 3213 3213 3213 3213 3214 3213 3213 3213 3213 3212 3213 3213 3213 3213 3213 3214 3214 3214 3215 3215 3216 3216 3217 3218 3219 3219 3219
3183 3184 3185 3187 3188 3190 3191 3193 3194 3196 3197 3199 3200 3201 3203 3204 3205 3206 3207 3208 3209 3210 3211 3212 3213 3213 3214 3215 3216 3217 3217 3218 3219 3219 3220 3221 3222 3222 3223 3223 3223 3223 3223 3223 3222 3222 3222 3221 3221 3220 3220 3220 3219 3218 3217 3216 3215 3214 3213 3212 3212 3213 3213 3213 3213 3213 3213 3213 3213 3213 3213 3213 3214 3214 3214 3214 3215 3215 3215 3216 3216 3217 3217 3217 3218
3182 3183 3184 3186 3188 3189 3191 3192 3193 3195 3196 3198 3199 3200 3202 3203 3204 3205 3205 3207 3208 3209 3210 3211 3211 3212 3213 3214 3215 3216 3216 3217 3218 3219 3220 3221 3221 3222 3222 3223 3223 3223 3222 3222 3222 3222 3221 3220 3220 3219 3219 3219 3218 3217 3217 3216 3215 3214 3213 3212 3212 3212 3212 3212 3213 3213 3213 3213 3212 3213 3213 3213 3214 3214 3214 3215 3215 3215 3215 3215 3216 3216 3216 3216 3217
3181 3182 3183 3185 3186 3188 3189 3191 3192 3194 3195 3196 3198 3199 3200 3201 3202 3203 3204 3205 3207 3208 3209 3210 3211 3211 3212 3213 3214 3215 3216 3217 3217 3219 3219 3220 3221 3221 3222 3222 3222 3222 3222 3222 3221 3221 3220 3220 3219 3219 3218 3218 3217 3217 3216 3215 3215 3214 3213 3212 3212 3212 3212 3212 3213 3213 3213 3212 3212 3212 3213 3213 3213 3214 3214 3214 3215 3215 3215 3215 3216 3216 3216 3216 3217
3179 3180 3182 3183 3185 3186 3188 3189 3191 3192 3194 3195 3196 3197 3198 3200 3201 3202 3203 3205 3206 3207 3208 3209 3210 3210 3211 3212 3213 3214 3215 3216 3217 3218 3219 3220 3221 3221 3221 3222 3221 3221 3221 3221 3221 3220 3220 3219 3219 3218 3218 3217 3217 3217 3216 3215 3215 3214 3213 3213 3212 3212 3212 3212 3212 3213 3213 3212 3212 3213 3213 3213 3213 3213 3213 3214 3214 3215 3215 3215 3215 3216 3216 3216 3216
3178 3179 3180 3182 3183 3185 3186 3188 3190 3191 3192 3193 3194 3196 3197 3199 3200 3201 3203 3204 3205 3206 3207 3208 3209 3210 3210 3211 3212 3213 3214 3215 3216 3217 3219 3219 3220 3220 3220 3220 3220 3220 3220 3220 3220 3219 3219 3219 3219 3219 3218 3218 3217 3217 3216 3215 3215 3214 3213 3213 3212 3212 3212 3212 3212 3212 3212 3212 3213 3212 3212 3212 3212 3213 3213 3213 3213 3214 3214 3214 3214 3215 3215 3215 3215
3176 3177 3178 3180 3182 3184 3185 3187 3188 3190 3191 3192 3193 3195 3196 3198 3199 3201 3202 3204 3204 3206 3207 3207 3208 3208 3209 3210 3211 3212 3213 3214 3215 3216 3218 3219 3219 3219 3219 3219 3219 3219 3219 3219 3219 3219 3219 3219 3219 3219 3218 3218 3218 3217 3216 3215 3215 3214 3213 3213 3212 3212 3212 3212 3212 3212 3212 3212 3212 3212 3212 3212 3212 3212 3212 3212 3213 3213 3213 3213 3213 3214 3214 3214 3214
3175 3176 3178 3179 3180 3182 3184 3185 3187 3188 3190 3191 3192 3194 3196 3197 3199 3200 3201 3202 3203 3204 3205 3206 3206 3207 3208 3209 3210 3211 3212 3213 3214 3216 3217 3218 3218 3218 3218 3218 3218 3218 3218 3218 3219 3219 3219 3219 3219 3219 3219 3219 3218 3218 3217 3216 3215 3214 3214 3213 3213 3212 3212 3213 3213 3212 3212 3212 3213 3213 3212 3212 3212 3212 3212 3212 3212 3212 3212 3213 3213 3213 3213 3213 3213
3173 3175 3176 3177 3179 3181 3182 3184 3186 3187 3188 3190 3191 3193 3195 3196 3197 3198 3199 3200 3201 3202 3203 3203 3204 3205 3206 3207 3209 3210 3211 3212 3214 3215 3216 3217 3217 3218 3218 3217 3217 3217 3218 3218 3219 3219 3219 3219 3219 3219 3219 3219 3219 3218 3217 3217 3216 3215 3214 3213 3213 3213 3213 3213 3213 3213 3212 3213 3213 3213 3213 3212 3212 3212 3212 3212 3212 3212 3212 3212 3212 3212 3212 3213 3212
3171 3172 3174 3176 3178 3180 3182 3183 3185 3186 3187 3189 3190 3192 3193 3194 3195 3196 3197 3198 3199 3200 3201 3202 3203 3204 3205 3207 3208 3209 3210 3211 3213 3214 3215 3216 3216 3217 3217 3217 3217 3217 3218 3218 3219 3219 3220 3220 3220 3220 3220 3219 3219 3219 3218 3217 3216 3215 3215 3214 3214 3214 3214 3213 3213 3213 3213 3213 3213 3213 3213 3213 3213 3213 3212 3212 3212 3211 3211 3211 3211 3211 3212 3212 3212
3169 3171 3173 3175 3177 3179 3181 3182 3183 3185 3186 3188 3189 3190 3191 3192 3193 3194 3195 3196 3198 3199 3201 3202 3202 3203 3204 3206 3207 3207 3209 3210 3212 3213 3214 3215 3215 3216 3216 3216 3217 3217 3218 3218 3219 3219 3220 3220 3220 3220 3220 3220 3220 3219 3218 3218 3217 3216 3215 3215 3214 3214 3214 3214 3214 3213 3213 3213 3213 3213 3213 3213 3214 3213 3213 3212 3212 3211 3211 3211 3211 3211 3211 3211 3211
3168 3170 3172 3174 3175 3177 3179 3180 3182 3183 3184 3186 3187 3188 3189 3191 3192 3193 3194 3196 3197 3199 3200 3201 3202 3202 3203 3204 3205 3206 3207 3209 3210 3212 3213 3213 3214 3215 3215 3216 3216 3217 3218 3218 3219 3219 3220 3220 3220 3220 3220 3220 3220 3219 3219 3218 3217 3216 3216 3215 3215 3214 3214 3214 3214 3214 3214 3214 3213 3213 3213 3213 3213 3213 3213 3212 3212 3211 3211 3210 3210 3210 3210 3210 3210
3167 3169 3170 3172 3174 3175 3177 3178 3180 3181 3183 3184 3185 3187 3188 3189 3191 3192 3193 3195 3196 3198 3199 3200 3200 3201 3202 3202 3204 3205 3206 3207 3209 3210 3211 3212 3213 3214 3214 3215 3216 3217 3218 3218 3219 3219 3220 3220 3221 3221 3221 3220 3220 3220 3219 3218 3217 3217 3216 3215 3215 3215 3214 3214 3214 3214 3214 3214 3213 3213 3213 3213 3213 3213 3213 3213 3212 3211 3211 3210 3209 3209 3208 3208 3209
3165 3167 3169 3171 3173 3174 3176 3177 3178 3179 3181 3182 3183 3185 3186 3188 3189 3190 3192 3193 3195 3196 3197 3198 3198 3199 3200 3201 3202 3203 3204 3206 3207 3209 3210 3211 3212 3213 3214 3215 3216 3217 3217 3218 3219 3219 3220 3220 3221 3221 3221 3221 3220 3220 3219 3218 3218 3217 3216 3216 3215 3215 3215 3214 3214 3214 3214 3214 3213 3213 3212 3213 3213 3212 3212 3212 3212 3212 3211 3210 3210 3209 3208 3207 3207
3163 3165 3167 3169 3171 3172 3174 3175 3176 3178 3179 3180 3181 3183 3184 3186 3187 3188 3190 3192 3193 3195 3195 3196 3197 3197 3198 3200 3201 3202 3203 3205 3206 3208 3209 3210 3211 3212 3213 3214 3215 3216 3217 3218 3219 3219 3220 3220 3221 3221 3221 3221 3220 3220 3219 3219 3218 3217 3217 3216 3216 3215 3215 3215 3214 3214 3213 3213 3213 3213 3212 3212 3212 3212 3212 3212 3212 3212 3211 3211 3210 3209 3209 3208 3207
3160 3162 3164 3166 3168 3169 3171 3172 3174 3176 3177 3178 3179 3181 3182 3183 3185 3187 3189 3190 3192 3192 3193 3194 3195 3196 3197 3198 3200 3201 3202 3203 3205 3206 3208 3209 3210 3211 3213 3214 3215 3216 3217 3218 3219 3219 3220 3220 3220 3221 3221 3221 3220 3220 3220 3219 3218 3218 3217 3216 3216 3216 3215 3215 3214 3214 3213 3213 3213 3212 3212 3212 3212 3212 3211 3211 3211 3211 3211 3211 3210 3210 3209 3208 3207